DW6471 Weather Reports


Display with metric or nautical units.
time (UTC)temp
F
wind
direction
speed
MPH
gust
MPH
rain 1hr
in
rain 24hr
in
rain mn
in
humidity
%
barometer
mb
20260507235718 75 338 1.0 3.0 0.00 1.21 1.21 82 1013.1
20260507235218 75 65 1.0 4.0 0.00 1.21 1.21 82 1013.0
20260507234716 75 58 1.0 4.0 0.00 1.21 1.21 82 1013.0
20260507234448 75 37 1.0 3.0 0.00 1.21 1.21 82 1012.9
20260507233714 75 65 1.0 5.0 0.00 1.21 1.21 82 1013.0
20260507233214 76 334 2.0 5.0 0.00 1.21 1.21 81 1013.0
20260507232714 76 357 1.0 4.0 0.00 1.21 1.21 81 1013.0
20260507232214 76 332 1.0 3.0 0.00 1.21 1.21 81 1013.0
20260507231714 76 64 1.0 4.0 0.00 1.21 1.21 81 1013.1
20260507231444 76 13 1.0 5.0 0.00 1.21 1.21 81 1013.1
20260507230714 76 35 1.0 5.0 0.00 1.21 1.21 81 1013.1
20260507230446 77 355 1.0 2.0 0.00 1.21 1.21 81 1013.1
20260507225714 77 58 1.0 3.0 0.00 1.21 1.21 81 1012.9
20260507225213 77 359 1.0 5.0 0.00 1.21 1.21 81 1012.8
20260507224714 77 96 1.0 5.0 0.00 1.21 1.21 80 1012.8
20260507224214 77 8 2.0 5.0 0.00 1.21 1.21 80 1012.7
20260507223712 77 342 2.0 5.0 0.00 1.21 1.21 79 1012.8
20260507223444 77 13 1.0 4.0 0.00 1.21 1.21 79 1012.8
20260507222942 77 56 1.0 4.0 0.00 1.21 1.21 79 1012.6
20260507222211 78 352 2.0 7.0 0.00 1.21 1.21 80 1012.8
20260507221712 78 14 2.0 7.0 0.00 1.21 1.21 80 1012.8
20260507221212 78 53 2.0 5.0 0.00 1.21 1.21 80 1012.9
20260507220711 78 34 2.0 5.0 0.00 1.21 1.21 79 1012.8
20260507220210 78 49 1.0 6.0 0.00 1.21 1.21 80 1012.8
20260507215710 78 251 2.0 6.0 0.00 1.21 1.21 79 1012.8
20260507215210 78 191 2.0 7.0 0.00 1.21 1.21 80 1012.7
20260507214710 78 314 1.0 7.0 0.00 1.21 1.21 79 1012.7
20260507214209 79 342 2.0 5.0 0.00 1.21 1.21 79 1012.7
20260507213710 78 79 2.0 5.0 0.00 1.21 1.21 80 1012.8
20260507213208 78 326 1.0 6.0 0.00 1.21 1.21 80 1012.8
20260507212708 78 347 2.0 6.0 0.00 1.21 1.21 81 1012.7
20260507212208 78 25 2.0 5.0 0.00 1.21 1.21 81 1012.7
20260507211708 78 310 2.0 5.0 0.00 1.21 1.21 80 1012.7
20260507211206 79 340 1.0 5.0 0.00 1.21 1.21 79 1012.6
20260507210706 80 257 1.0 4.0 0.00 1.21 1.21 78 1012.6
20260507210206 80 264 1.0 4.0 0.00 1.21 1.21 79 1012.6
20260507205706 81 274 2.0 4.0 0.00 1.21 1.21 77 1012.7
20260507205206 81 231 1.0 4.0 0.00 1.22 1.21 77 1012.7
20260507204935 82 301 1.0 3.0 0.00 1.22 1.21 78 1012.6
20260507204435 81 334 1.0 3.0 0.00 1.22 1.21 76 1012.6
20260507203934 81 257 1.0 3.0 0.00 1.22 1.21 79 1012.5
20260507203203 81 248 1.0 3.0 0.00 1.22 1.21 79 1012.5
20260507202704 80 328 1.0 3.0 0.00 1.22 1.21 77 1012.6
20260507202204 81 347 0.0 3.0 0.00 1.22 1.21 80 1012.5
20260507201704 80 266 0.0 2.0 0.00 1.22 1.21 80 1012.5
20260507201204 79 301 0.0 2.0 0.00 1.22 1.21 81 1012.6
20260507200704 79 317 1.0 3.0 0.00 1.22 1.21 82 1012.5
20260507200204 79 58 1.0 4.0 0.00 1.22 1.21 81 1012.8
20260507195936 79 321 1.0 4.0 0.00 1.22 1.21 84 1013.0
20260507195204 78 75 0.0 2.0 0.00 1.22 1.21 85 1012.9
20260507194702 78 105 0.0 2.0 0.00 1.22 1.21 86 1012.8
20260507194202 77 74 1.0 3.0 0.00 1.22 1.21 86 1012.9
20260507193701 76 85 1.0 3.0 0.00 1.22 1.21 87 1012.9
20260507193201 77 319 1.0 2.0 0.00 1.22 1.21 87 1013.1
20260507192700 76 18 1.0 2.0 0.00 1.22 1.21 89 1013.2
20260507192200 75 120 1.0 3.0 0.00 1.26 1.21 90 1013.3
20260507191702 74 46 0.0 1.0 0.00 1.44 1.21 91 1013.3
20260507191658 75 82 0.0 3.0 0.00 1.35 1.21 91 1013.3
20260507190658 74 46 1.0 2.0 0.00 1.46 1.21 92 1013.4
20260507190157 74 46 1.0 2.0 0.00 1.48 1.21 93 1013.4
20260507185656 73 40 0.0 2.0 0.00 1.54 1.21 94 1013.2
20260507185157 73 65 1.0 3.0 0.00 1.56 1.21 93 1013.1
20260507184656 72 65 1.0 3.0 0.00 1.60 1.21 93 1013.2
20260507184156 72 60 0.0 2.0 0.00 1.60 1.21 94 1013.2
20260507183654 72 60 0.0 2.0 0.00 1.61 1.21 94 1013.5
20260507183153 71 351 1.0 3.0 0.00 1.61 1.21 94 1013.6
20260507182925 71 38 1.0 4.0 0.00 1.61 1.21 93 1013.5
20260507182154 71 66 1.0 4.0 0.00 1.62 1.21 94 1013.5
20260507181654 71 324 2.0 5.0 0.01 1.64 1.21 94 1013.6
20260507181153 71 40 2.0 5.0 0.01 1.64 1.21 93 1013.7
20260507180652 71 46 2.0 4.0 0.01 1.65 1.21 93 1013.9
20260507180152 71 352 2.0 5.0 0.01 1.65 1.21 93 1013.8
20260507175651 71 49 3.0 6.0 0.01 1.65 1.21 93 1014.0
20260507175151 72 91 3.0 6.0 0.01 1.65 1.21 93 1013.9
20260507174652 72 42 3.0 9.0 0.01 1.65 1.21 93 1014.1
20260507174152 72 301 3.0 9.0 0.02 1.65 1.21 93 1014.0
20260507173651 73 54 3.0 8.0 0.04 1.65 1.21 93 1014.1
20260507173152 73 18 3.0 5.0 0.05 1.65 1.21 93 1014.0
20260507172652 73 70 2.0 5.0 0.05 1.65 1.21 93 1014.1
20260507172422 73 358 1.0 5.0 0.05 1.65 1.21 93 1014.2
20260507171650 74 324 1.0 3.0 0.05 1.64 1.20 93 1014.2
20260507171148 74 251 1.0 2.0 0.07 1.64 1.20 94 1014.1
20260507170652 73 210 0.0 1.0 0.21 1.64 1.20 94 1014.1
20260507170648 74 272 0.0 2.0 0.14 1.64 1.20 94 1014.1
20260507165645 73 209 0.0 1.0 0.23 1.64 1.20 94 1014.1
20260507165146 73 209 0.0 1.0 0.27 1.64 1.20 94 1014.2
20260507164645 73 210 0.0 1.0 0.37 1.64 1.20 94 1014.1
20260507164146 73 209 0.0 1.0 0.36 1.63 1.20 93 1014.1
20260507163646 73 210 0.0 1.0 0.37 1.61 1.17 94 1014.3
20260507163146 73 210 0.0 1.0 0.36 1.60 1.17 94 1014.3
20260507162645 73 207 0.0 3.0 0.43 1.60 1.16 93 1014.2
20260507162146 72 215 1.0 3.0 0.52 1.60 1.16 93 1014.3
20260507161917 72 226 2.0 6.0 0.52 1.59 1.15 93 1014.4
20260507161143 72 205 1.0 6.0 0.50 1.57 1.13 93 1014.4
20260507160644 73 208 1.0 3.0 0.43 1.50 1.08 93 1014.4
20260507160143 73 231 1.0 5.0 0.36 1.43 1.00 93 1014.3
20260507155643 73 168 1.0 5.0 0.34 1.41 0.97 93 1014.1
20260507155142 73 210 1.0 4.0 0.30 1.37 0.93 93 1014.2
20260507154639 73 203 1.0 4.0 0.23 1.27 0.84 93 1014.4
20260507154140 73 215 1.0 4.0 0.30 1.27 0.83 93 1013.9
20260507153640 73 218 1.0 4.0 0.36 1.24 0.80 92 1014.0
20260507153139 73 262 1.0 4.0 0.46 1.24 0.80 92 1014.1
20260507152640 73 287 1.0 4.0 0.52 1.17 0.75 92 1014.0
20260507152411 74 322 0.0 2.0 0.61 1.08 0.64 93 1014.6
20260507151640 73 255 1.0 5.0 0.62 1.07 0.63 93 1013.8
20260507151140 73 234 1.0 5.0 0.63 1.07 0.63 92 1013.6
20260507150638 73 229 1.0 4.0 0.63 1.07 0.63 93 1013.8
20260507150138 73 319 1.0 4.0 0.63 1.07 0.63 93 1014.0
20260507145635 73 262 2.0 8.0 0.63 1.07 0.63 92 1014.1
20260507145136 73 171 2.0 8.0 0.63 1.08 0.63 92 1014.0
20260507144634 74 239 1.0 5.0 0.60 1.05 0.60 93 1013.7
20260507144133 74 212 2.0 4.0 0.53 0.98 0.54 93 1013.4
20260507143632 74 202 3.0 8.0 0.44 0.89 0.46 92 1013.6
20260507143403 75 192 3.0 12.0 0.34 0.79 0.35 91 1013.7
20260507142632 76 195 2.0 12.0 0.21 0.66 0.22 90 1013.7
20260507142130 76 309 1.0 5.0 0.03 0.48 0.03 90 1013.7
20260507141630 77 340 1.0 4.0 0.01 0.46 0.01 90 1013.3
20260507141130 77 229 1.0 4.0 0.00 0.45 0.00 89 1012.9
20260507140858 77 222 2.0 10.0 0.00 0.45 0.00 89 1012.8
20260507140127 77 218 3.0 10.0 0.00 0.45 0.00 89 1012.4
20260507135858 78 200 3.0 8.0 0.00 0.45 0.00 89 1012.3
20260507135125 77 213 3.0 10.0 0.00 0.45 0.00 89 1012.5
20260507134625 77 200 3.0 10.0 0.00 0.45 0.00 89 1012.6
20260507134124 77 240 3.0 8.0 0.00 0.45 0.00 90 1012.5
20260507133623 77 269 3.0 8.0 0.00 0.45 0.00 90 1012.5
20260507133124 77 171 3.0 11.0 0.00 0.45 0.00 90 1012.6
20260507132621 77 184 3.0 11.0 0.00 0.45 0.00 90 1012.7
20260507132121 77 222 3.0 10.0 0.00 0.45 0.00 90 1012.7
20260507131620 77 214 2.0 8.0 0.00 0.45 0.00 90 1012.7
20260507131120 77 263 2.0 10.0 0.00 0.45 0.00 90 1012.6
20260507130620 77 179 3.0 11.0 0.00 0.45 0.00 90 1012.5
20260507130119 77 237 4.0 11.0 0.00 0.45 0.00 90 1012.4
20260507125620 77 210 3.0 11.0 0.00 0.45 0.00 90 1012.5
20260507125120 77 196 3.0 11.0 0.00 0.45 0.00 91 1012.5
20260507124620 77 214 4.0 10.0 0.00 0.45 0.00 91 1012.4
20260507124120 77 235 3.0 10.0 0.00 0.45 0.00 91 1012.4
20260507123619 77 198 3.0 10.0 0.00 0.45 0.00 91 1012.4
20260507123119 0 202 3.0 2.0 0.00 0.45 0.00 1012.4
20260507122614 0 0.0 0.0 0.00 0.45 0.00 1012.4
20260507122111 0 0.0 0.0 0.00 0.45 0.00 1012.3
20260507121612 0 0.0 0.0 0.00 0.45 0.00 1012.3
20260507121112 0 0.0 0.0 0.00 0.45 0.00 1012.2
20260507120612 0 0.0 0.0 0.00 0.45 0.00 1012.0
20260507120109 0 0.0 0.0 0.00 0.45 0.00 1011.9
20260507115604 0 0.0 0.0 0.00 0.45 0.00 1011.9
20260507115013 0 0.0 0.0 0.00 0.45 0.00 1012.0
20260507114511 0 0.0 0.0 0.00 0.45 0.00 1012.2
20260507114240 0 0.0 0.0 0.00 0.45 0.00 1012.0
20260507113457 0 0.0 0.0 0.00 0.45 0.00 1012.0
20260507112918 0 0.0 0.0 0.00 0.45 0.00 1012.0
20260507112418 0 0.0 0.0 0.00 0.45 0.00 1012.0
20260507111914 0 0.0 0.0 0.00 0.45 0.00 1011.8
20260507111644 0 0.0 0.0 0.00 0.45 0.00 1011.6
20260507110902 0 0.0 0.0 0.00 0.45 0.00 1011.6
20260507110316 0 0.0 0.0 0.00 0.45 0.00 1011.7
20260507110048 0 0.0 0.0 0.00 0.45 0.00 1011.7
20260507105316 0 0.0 0.0 0.00 0.45 0.00 1011.4
20260507104813 0 0.0 0.0 0.00 0.45 0.00 1011.2
20260507104542 0 0.0 0.0 0.00 0.45 0.00 1011.2
20260507103715 0 0.0 0.0 0.00 0.45 0.00 1011.1
20260507103216 0 0.0 0.0 0.00 0.45 0.00 1011.1
20260507102716 0 0.0 0.0 0.00 0.45 0.00 1011.1
20260507102215 0 0.0 0.0 0.00 0.45 0.00 1011.2
20260507101707 0 0.0 12.0 0.00 0.45 0.00 1011.0
20260507101204 77 219 3.0 12.0 0.00 0.45 0.00 92 1011.1
20260507100632 77 219 3.0 12.0 0.00 0.45 0.00 92 1011.1
20260507100132 77 219 3.0 12.0 0.00 0.45 0.00 92 1011.1
20260507095902 76 253 3.0 12.0 0.00 0.45 0.00 93 1011.1
20260507095132 76 211 3.0 12.0 0.00 0.45 0.00 93 1011.2
20260507094632 76 243 3.0 11.0 0.00 0.45 0.00 93 1011.1
20260507094131 76 200 3.0 11.0 0.00 0.45 0.00 93 1011.2
20260507093632 76 276 4.0 11.0 0.00 0.45 0.00 93 1011.2
20260507093403 76 187 4.0 11.0 0.00 0.45 0.00 93 1011.3
20260507092632 76 282 4.0 12.0 0.00 0.45 0.00 93 1011.2
20260507092131 76 193 4.0 12.0 0.00 0.45 0.00 93 1011.2
20260507091631 76 261 4.0 11.0 0.00 0.45 0.00 93 1011.1
20260507091132 76 226 3.0 10.0 0.00 0.45 0.00 93 1011.0
20260507090631 76 233 3.0 10.0 0.00 0.45 0.00 93 1011.0
20260507090132 76 274 3.0 12.0 0.00 0.45 0.00 93 1011.0
20260507085631 76 174 3.0 12.0 0.00 0.45 0.00 93 1010.9
20260507085132 76 193 3.0 8.0 0.00 0.45 0.00 93 1011.1
20260507084631 76 279 4.0 8.0 0.00 0.45 0.00 93 1011.2
20260507084402 77 210 3.0 8.0 0.00 0.45 0.00 93 1011.1
20260507083902 77 281 2.0 7.0 0.00 0.45 0.00 93 1011.2
20260507083403 77 202 2.0 11.0 0.00 0.45 0.00 93 1011.2
20260507082631 77 283 3.0 12.0 0.00 0.45 0.00 93 1011.4
20260507082132 77 211 3.0 12.0 0.00 0.45 0.00 93 1011.4
20260507081631 77 191 3.0 10.0 0.00 0.45 0.00 93 1011.5
20260507081132 77 230 4.0 11.0 0.00 0.45 0.00 93 1011.4
20260507080631 77 238 4.0 11.0 0.00 0.45 0.00 93 1011.3
20260507080132 77 274 4.0 13.0 0.00 0.45 0.00 92 1011.2
20260507075632 77 226 4.0 13.0 0.00 0.45 0.00 92 1011.2
20260507075131 77 221 3.0 12.0 0.00 0.45 0.00 92 1011.2
20260507074632 77 67 3.0 12.0 0.00 0.45 0.00 92 1011.3
20260507074133 77 326 3.0 10.0 0.00 0.45 0.00 92 1011.4
20260507073632 77 210 3.0 10.0 0.00 0.45 0.00 92 1011.4
20260507073132 77 253 3.0 9.0 0.00 0.45 0.00 92 1011.5
20260507072903 77 200 3.0 8.0 0.00 0.45 0.00 92 1011.6
20260507072132 77 214 3.0 7.0 0.00 0.45 0.00 92 1011.6
20260507071903 77 190 3.0 7.0 0.00 0.45 0.00 92 1011.6
20260507071132 77 202 2.0 7.0 0.00 0.45 0.00 92 1011.8
20260507070631 77 48 2.0 8.0 0.00 0.45 0.00 92 1011.8
20260507070132 77 184 2.0 8.0 0.00 0.45 0.00 92 1011.8
20260507065631 77 207 1.0 8.0 0.00 0.45 0.00 92 1011.8
20260507065132 77 144 2.0 8.0 0.00 0.45 0.00 92 1011.5
20260507064903 77 153 2.0 7.0 0.00 0.45 0.00 92 1011.7
20260507064132 77 174 2.0 8.0 0.00 0.45 0.00 92 1011.7
20260507063632 77 98 3.0 8.0 0.00 0.45 0.00 92 1011.7
20260507063131 77 151 3.0 9.0 0.00 0.45 0.00 92 1011.8
20260507062903 77 179 3.0 9.0 0.00 0.45 0.00 92 1011.9
20260507062132 77 229 3.0 9.0 0.00 0.45 0.00 92 1011.8
20260507061903 77 130 3.0 10.0 0.00 0.45 0.00 92 1011.6
20260507061132 77 250 3.0 10.0 0.00 0.45 0.00 92 1011.7
20260507060632 77 194 3.0 10.0 0.00 0.45 0.00 92 1011.8
20260507060129 77 225 3.0 10.0 0.00 0.45 0.00 92 1011.8
20260507055630 77 211 3.0 9.0 0.00 0.45 0.00 92 1011.9
20260507055125 77 206 2.0 9.0 0.00 0.45 0.00 92 1011.7
20260507054623 77 169 2.0 7.0 0.00 0.45 0.00 92 1011.9
20260507054123 77 156 2.0 6.0 0.00 0.45 0.00 92 1012.0
20260507053621 77 212 2.0 12.0 0.00 0.45 0.00 92 1012.0
20260507053122 77 223 2.0 12.0 0.00 0.45 0.00 92 1012.2
20260507052621 77 292 2.0 6.0 0.00 0.45 0.00 92 1012.3
20260507052120 77 269 3.0 6.0 0.00 0.45 0.00 92 1012.7
20260507051619 77 239 2.0 6.0 0.00 0.45 0.00 92 1012.5
20260507051118 77 219 2.0 6.0 0.00 0.45 0.00 92 1012.4
20260507050615 77 223 2.0 10.0 0.00 0.45 0.00 92 1012.3
20260507050115 77 262 2.0 10.0 0.00 0.45 0.00 92 1012.3
20260507045614 77 65 2.0 5.0 0.00 0.45 0.45 92 1012.3
20260507045114 77 165 2.0 5.0 0.00 0.45 0.45 92 1012.2
20260507044612 77 49 3.0 10.0 0.00 0.45 0.45 92 1012.2
20260507044112 77 158 3.0 10.0 0.00 0.45 0.45 92 1012.6
20260507043842 77 104 2.0 11.0 0.00 0.45 0.45 92 1012.6
20260507043110 77 203 2.0 11.0 0.00 0.45 0.45 92 1012.5
20260507042610 77 345 2.0 8.0 0.00 0.45 0.45 92 1012.4
20260507042110 77 207 3.0 8.0 0.00 0.45 0.45 92 1012.4
20260507041610 77 300 3.0 8.0 0.00 0.45 0.45 92 1012.3
20260507041110 77 80 3.0 9.0 0.00 0.45 0.45 92 1012.0
20260507040610 77 124 3.0 10.0 0.00 0.45 0.45 92 1012.0
20260507040109 77 167 2.0 10.0 0.00 0.45 0.45 92 1012.2
20260507035610 77 229 2.0 8.0 0.00 0.45 0.45 92 1012.4
20260507035342 77 227 2.0 5.0 0.00 0.45 0.45 92 1012.6
20260507034610 77 188 2.0 5.0 0.00 0.45 0.45 92 1012.8
20260507034340 77 109 2.0 7.0 0.00 0.45 0.45 92 1012.7
20260507033610 76 195 2.0 9.0 0.00 0.45 0.45 92 1012.8
20260507033110 76 213 2.0 9.0 0.00 0.45 0.45 92 1012.6
20260507032610 77 174 2.0 6.0 0.00 0.45 0.45 92 1012.5
20260507032110 77 176 2.0 7.0 0.00 0.45 0.45 92 1012.7
20260507031610 76 86 2.0 7.0 0.00 0.45 0.45 92 1012.7
20260507031341 76 207 1.0 4.0 0.00 0.45 0.45 92 1012.9
20260507030610 76 202 2.0 7.0 0.00 0.45 0.45 93 1012.9
20260507030110 76 226 2.0 10.0 0.00 0.45 0.45 93 1012.9
20260507025610 76 278 2.0 10.0 0.00 0.45 0.45 93 1012.8
20260507025107 76 234 2.0 8.0 0.00 0.45 0.45 93 1012.7
20260507024608 76 184 2.0 8.0 0.00 0.45 0.45 93 1012.5
20260507024108 76 209 2.0 8.0 0.00 0.45 0.45 93 1012.6
20260507023608 76 213 2.0 8.0 0.00 0.45 0.45 93 1012.5
20260507023339 76 79 2.0 8.0 0.00 0.45 0.45 93 1012.2
20260507022608 76 185 2.0 8.0 0.00 0.45 0.45 92 1012.0
20260507022109 76 179 2.0 9.0 0.00 0.45 0.45 92 1011.9
20260507021608 76 228 2.0 9.0 0.00 0.45 0.45 92 1012.0
20260507021338 76 245 2.0 9.0 0.00 0.45 0.45 92 1012.2
20260507020839 76 110 2.0 9.0 0.00 0.45 0.45 92 1011.9
20260507020108 76 215 3.0 7.0 0.00 0.45 0.45 92 1011.8
20260507015608 76 223 3.0 13.0 0.00 0.45 0.45 92 1011.6
20260507015108 76 218 3.0 13.0 0.00 0.45 0.45 92 1011.5
20260507014608 76 137 3.0 10.0 0.00 0.45 0.45 92 1011.6
20260507014108 76 226 2.0 8.0 0.00 0.45 0.45 92 1011.6
20260507013607 76 198 2.0 8.0 0.00 0.45 0.45 92 1011.8
20260507013107 76 115 2.0 7.0 0.00 0.45 0.45 92 1011.8
20260507012608 76 210 3.0 8.0 0.00 0.45 0.45 92 1011.8
20260507012108 76 200 2.0 8.0 0.00 0.45 0.45 92 1011.8
20260507011608 76 207 2.0 9.0 0.00 0.45 0.45 92 1011.8
20260507011338 76 245 2.0 9.0 0.00 0.45 0.45 92 1011.9
20260507010607 76 216 2.0 6.0 0.00 0.45 0.45 92 1012.0
20260507010108 76 213 2.0 8.0 0.00 0.45 0.45 92 1012.2
20260507005608 76 211 2.0 8.0 0.00 0.45 0.45 91 1012.2
20260507005106 76 300 2.0 7.0 0.00 0.45 0.45 91 1012.0
20260507004837 76 219 2.0 7.0 0.00 0.45 0.45 91 1011.7
20260507004106 76 335 2.0 8.0 0.00 0.45 0.45 91 1011.6
20260507003606 76 205 1.0 8.0 0.00 0.45 0.45 91 1011.5
20260507003107 76 229 1.0 6.0 0.00 0.45 0.45 91 1011.7
20260507002606 76 120 2.0 10.0 0.00 0.45 0.45 90 1012.3
20260507002112 76 146 1.0 5.0 0.00 0.45 0.45 90 1012.5
20260507002107 76 113 2.0 10.0 0.00 0.45 0.45 90 1012.4
20260507001105 76 193 1.0 5.0 0.00 0.45 0.45 90 1012.6
20260507000606 76 252 2.0 6.0 0.00 0.45 0.45 90 1012.6